When you browse on this site, cookies collect data to enhance your experience and personalize the content and advertising you see.
Visit our Privacy Policy to learn more. By continuing to use the site, you agree to this use of cookies and data.
  • en Suisse
  • Liste des pays
  • À 7 jours
  • Température de l'eau
  • Carte satellitaire
  • Carte météo
  • Widgets météo
  • user-avatar
    Se connecter

    Météo par heure à Vanadzor

    Ce jour, 25 Avril, Jeudi

    Heure Température Précipitation Vent Pression Humidité
    00:00 +4°C° 0.3 mm 1 m/s 639 mmHg 92%
    01:00 +3°C° 0.1 mm 1 m/s 639 mmHg 93%
    02:00 +3°C° 0.1 mm 1 m/s 639 mmHg 94%
    03:00 +2°C° 0 mm 1 m/s 638 mmHg 94%
    04:00 +2°C° 0 mm 1 m/s 638 mmHg 93%
    05:00 +2°C° 0 mm 1 m/s 639 mmHg 92%
    06:00 +2°C° 0 mm 1 m/s 639 mmHg 91%
    07:00 +3°C° 0 mm 1 m/s 639 mmHg 83%
    08:00 +5°C° 0 mm 1 m/s 639 mmHg 75%
    09:00 +7°C° 0 mm 1 m/s 639 mmHg 66%
    10:00 +7°C° 0 mm 1 m/s 639 mmHg 63%
    11:00 +7°C° 0 mm 2 m/s 639 mmHg 61%
    12:00 +8°C° 0 mm 2 m/s 639 mmHg 58%
    13:00 +8°C° 0.1 mm 2 m/s 639 mmHg 58%
    14:00 +9°C° 0.1 mm 2 m/s 639 mmHg 57%
    15:00 +9°C° 0.1 mm 2 m/s 639 mmHg 56%
    16:00 +8°C° 0.1 mm 2 m/s 639 mmHg 61%
    17:00 +8°C° 0.1 mm 2 m/s 638 mmHg 66%
    18:00 +7°C° 0.1 mm 2 m/s 638 mmHg 71%
    19:00 +6°C° 0 mm 1 m/s 638 mmHg 76%
    20:00 +5°C° 0 mm 1 m/s 638 mmHg 80%
    21:00 +3°C° 0 mm 1 m/s 638 mmHg 84%
    22:00 +3°C° 0 mm 1 m/s 638 mmHg 85%
    23:00 +3°C° 0 mm 1 m/s 638 mmHg 86%

    Demain, 26 Avril, Vendredi

    Heure Température Précipitation Vent Pression Humidité
    00:00 +2°C° 0 mm 1 m/s 639 mmHg 86%
    01:00 +2°C° 0 mm 1 m/s 639 mmHg 86%
    02:00 +2°C° 0 mm 1 m/s 638 mmHg 87%
    03:00 +2°C° 0 mm 1 m/s 638 mmHg 87%
    04:00 +2°C° 0 mm 1 m/s 638 mmHg 86%
    05:00 +2°C° 0 mm 1 m/s 639 mmHg 85%
    06:00 +3°C° 0 mm 1 m/s 639 mmHg 84%
    07:00 +5°C° 0 mm 1 m/s 639 mmHg 77%
    08:00 +6°C° 0 mm 1 m/s 639 mmHg 70%
    09:00 +7°C° 0 mm 2 m/s 639 mmHg 64%
    10:00 +8°C° 0 mm 2 m/s 639 mmHg 61%
    11:00 +9°C° 0 mm 2 m/s 639 mmHg 59%
    12:00 +10°C° 0 mm 2 m/s 639 mmHg 57%
    13:00 +10°C° 0.2 mm 2 m/s 638 mmHg 58%
    14:00 +10°C° 0.2 mm 2 m/s 638 mmHg 60%
    15:00 +10°C° 0.2 mm 2 m/s 637 mmHg 61%
    16:00 +9°C° 0.2 mm 2 m/s 637 mmHg 66%
    17:00 +9°C° 0.2 mm 2 m/s 637 mmHg 71%
    18:00 +9°C° 0.2 mm 1 m/s 637 mmHg 76%
    19:00 +8°C° 0 mm 1 m/s 637 mmHg 80%
    20:00 +6°C° 0 mm 1 m/s 637 mmHg 84%
    21:00 +5°C° 0 mm 1 m/s 637 mmHg 89%
    22:00 +4°C° 0 mm 1 m/s 637 mmHg 90%
    23:00 +4°C° 0 mm 1 m/s 637 mmHg 91%

    Après-demain, 27 Avril, Samedi

    Heure Température Précipitation Vent Pression Humidité
    00:00 +3°C° 0 mm 0 m/s 637 mmHg 92%
    01:00 +3°C° 0 mm 0 m/s 637 mmHg 92%
    02:00 +3°C° 0 mm 0 m/s 637 mmHg 92%
    03:00 +2°C° 0 mm 0 m/s 637 mmHg 93%
    04:00 +3°C° 0 mm 0 m/s 637 mmHg 92%
    05:00 +3°C° 0 mm 0 m/s 637 mmHg 91%
    06:00 +3°C° 0 mm 0 m/s 637 mmHg 90%
    07:00 +6°C° 0 mm 1 m/s 637 mmHg 81%
    08:00 +8°C° 0 mm 1 m/s 637 mmHg 72%
    09:00 +10°C° 0 mm 1 m/s 638 mmHg 63%
    10:00 +11°C° 0 mm 1 m/s 638 mmHg 60%
    11:00 +12°C° 0 mm 1 m/s 638 mmHg 57%
    12:00 +13°C° 0 mm 1 m/s 638 mmHg 53%
    13:00 +13°C° 0.3 mm 1 m/s 637 mmHg 53%
    14:00 +13°C° 0.3 mm 1 m/s 637 mmHg 53%
    15:00 +13°C° 0.3 mm 1 m/s 637 mmHg 52%
    16:00 +12°C° 0.3 mm 1 m/s 636 mmHg 57%
    17:00 +12°C° 0.3 mm 1 m/s 636 mmHg 63%
    18:00 +11°C° 0.3 mm 1 m/s 635 mmHg 68%
    19:00 +9°C° 0 mm 1 m/s 635 mmHg 71%
    20:00 +6°C° 0 mm 0 m/s 635 mmHg 73%
    21:00 +5°C° 0 mm 0 m/s 635 mmHg 76%
    22:00 +6°C° 0 mm 1 m/s 635 mmHg 75%
    23:00 +5°C° 0 mm 1 m/s 635 mmHg 74%

    28 Avril, Dimanche

    Heure Température Précipitation Vent Pression Humidité
    00:00 +5°C° 0 mm 1 m/s 635 mmHg 73%
    01:00 +5°C° 0 mm 1 m/s 635 mmHg 71%
    02:00 +5°C° 0 mm 1 m/s 634 mmHg 69%
    03:00 +4°C° 0 mm 1 m/s 634 mmHg 67%
    04:00 +4°C° 0 mm 2 m/s 634 mmHg 66%
    05:00 +4°C° 0 mm 2 m/s 634 mmHg 65%
    06:00 +4°C° 0 mm 2 m/s 634 mmHg 65%
    07:00 +7°C° 0 mm 2 m/s 635 mmHg 60%
    08:00 +9°C° 0 mm 2 m/s 635 mmHg 56%
    09:00 +11°C° 0 mm 3 m/s 636 mmHg 52%
    10:00 +12°C° 0.1 mm 3 m/s 636 mmHg 51%
    11:00 +13°C° 0.1 mm 3 m/s 635 mmHg 50%
    12:00 +14°C° 0.1 mm 3 m/s 635 mmHg 49%
    13:00 +14°C° 0.2 mm 3 m/s 635 mmHg 48%
    14:00 +15°C° 0.2 mm 4 m/s 635 mmHg 47%
    15:00 +15°C° 0.2 mm 4 m/s 634 mmHg 47%
    16:00 +14°C° 0.1 mm 3 m/s 634 mmHg 52%
    17:00 +14°C° 0.1 mm 2 m/s 634 mmHg 58%
    18:00 +13°C° 0.1 mm 1 m/s 634 mmHg 64%
    19:00 +12°C° 0.1 mm 1 m/s 634 mmHg 66%
    20:00 +10°C° 0.1 mm 1 m/s 634 mmHg 69%
    21:00 +7°C° 0.1 mm 2 m/s 634 mmHg 72%
    22:00 +7°C° 0 mm 2 m/s 634 mmHg 71%
    23:00 +7°C° 0 mm 2 m/s 634 mmHg 71%

    29 Avril, Lundi

    Heure Température Précipitation Vent Pression Humidité
    00:00 +6°C° 0 mm 2 m/s 634 mmHg 71%
    01:00 +6°C° 0 mm 2 m/s 633 mmHg 71%
    02:00 +6°C° 0 mm 2 m/s 633 mmHg 72%
    03:00 +6°C° 0 mm 2 m/s 633 mmHg 72%
    04:00 +6°C° 0 mm 2 m/s 634 mmHg 74%
    05:00 +6°C° 0 mm 2 m/s 634 mmHg 75%
    06:00 +6°C° 0 mm 2 m/s 634 mmHg 77%
    07:00 +9°C° 0 mm 2 m/s 635 mmHg 71%
    08:00 +11°C° 0 mm 3 m/s 635 mmHg 64%
    09:00 +14°C° 0 mm 3 m/s 636 mmHg 58%
    10:00 +14°C° 0.1 mm 3 m/s 636 mmHg 56%
    11:00 +16°C° 0.1 mm 3 m/s 636 mmHg 53%
    12:00 +17°C° 0.1 mm 3 m/s 636 mmHg 51%
    13:00 +17°C° 0.8 mm 3 m/s 635 mmHg 54%
    14:00 +16°C° 0.8 mm 3 m/s 634 mmHg 56%
    15:00 +16°C° 0.8 mm 2 m/s 634 mmHg 58%
    16:00 +15°C° 1 mm 2 m/s 634 mmHg 65%
    17:00 +14°C° 1 mm 1 m/s 633 mmHg 72%
    18:00 +13°C° 1 mm 1 m/s 633 mmHg 78%
    19:00 +12°C° 0.2 mm 1 m/s 633 mmHg 80%
    20:00 +11°C° 0.2 mm 1 m/s 633 mmHg 81%
    21:00 +10°C° 0.2 mm 1 m/s 633 mmHg 82%
    22:00 +10°C° 0.2 mm 1 m/s 633 mmHg 83%
    23:00 +10°C° 0.2 mm 1 m/s 633 mmHg 83%

    30 Avril, Mardi

    Heure Température Précipitation Vent Pression Humidité
    00:00 +10°C° 0.2 mm 1 m/s 633 mmHg 83%
    01:00 +9°C° 0.1 mm 1 m/s 633 mmHg 83%
    02:00 +9°C° 0.1 mm 1 m/s 633 mmHg 83%
    03:00 +8°C° 0.1 mm 1 m/s 633 mmHg 83%
    04:00 +9°C° 0.2 mm 1 m/s 633 mmHg 83%
    05:00 +9°C° 0.2 mm 1 m/s 633 mmHg 84%
    06:00 +9°C° 0.2 mm 1 m/s 633 mmHg 84%
    07:00 +9°C° 0.1 mm 2 m/s 634 mmHg 80%
    08:00 +10°C° 0.1 mm 2 m/s 634 mmHg 76%
    09:00 +12°C° 0.1 mm 2 m/s 635 mmHg 73%
    10:00 +13°C° 0.3 mm 2 m/s 635 mmHg 69%
    11:00 +14°C° 0.3 mm 2 m/s 635 mmHg 66%
    12:00 +15°C° 0.3 mm 2 m/s 635 mmHg 62%
    13:00 +16°C° 0.8 mm 2 m/s 634 mmHg 60%
    14:00 +16°C° 0.8 mm 2 m/s 634 mmHg 58%
    15:00 +17°C° 0.8 mm 2 m/s 634 mmHg 56%
    16:00 +16°C° 1 mm 2 m/s 634 mmHg 63%
    17:00 +15°C° 1 mm 1 m/s 633 mmHg 70%
    18:00 +14°C° 1 mm 1 m/s 633 mmHg 78%
    19:00 +13°C° 0.4 mm 1 m/s 633 mmHg 78%
    20:00 +12°C° 0.4 mm 1 m/s 633 mmHg 79%
    21:00 +11°C° 0.4 mm 1 m/s 634 mmHg 79%
    22:00 +10°C° 0 mm 1 m/s 633 mmHg 79%
    23:00 +10°C° 0 mm 1 m/s 633 mmHg 79%
    Voir plus